EW7154 Weather Reports


time (UTC)temp
C
wind
direction
speed
KPH
gust
KPH
rain 1hr
cm
rain 24hr
cm
rain mn
cm
humidity
%
barometer
mb
20260509054019 10 45 0.0 0.0 0.00 0.03 0.00 92 1008.5
20260509053019 10 45 0.0 0.0 0.00 0.03 0.00 91 1008.9
20260509052019 10 45 0.0 0.0 0.00 0.03 0.00 89 1008.9
20260509051020 10 45 0.0 0.0 0.00 0.03 0.00 89 1008.9
20260509050118 11 45 0.0 0.0 0.00 0.03 0.00 89 1008.9
20260509050021 11 45 0.0 0.0 0.00 0.03 0.00 89 1008.9
20260509044118 11 22 0.0 0.0 0.00 0.03 0.00 88 1009.2
20260509043119 11 360 0.0 0.0 0.00 0.03 0.00 87 1009.2
20260509042119 11 360 0.0 0.0 0.00 0.03 0.00 86 1009.2
20260509041120 11 360 0.0 0.0 0.00 0.03 0.00 86 1008.9
20260509035221 11 22 0.0 0.0 0.00 0.03 0.03 85 1009.2
20260509034223 12 90 0.0 0.0 0.00 0.03 0.03 85 1009.5
20260509032222 12 90 0.0 0.0 0.00 0.03 0.03 86 1009.5
20260509031221 12 202 0.0 0.0 0.00 0.03 0.03 86 1009.5
20260509030221 12 319 0.0 0.0 0.00 0.03 0.03 87 1009.5
20260509025222 12 360 0.0 0.0 0.00 0.03 0.03 87 1009.5
20260509024222 12 270 0.0 0.0 0.00 0.03 0.03 88 1009.5
20260509023222 12 270 0.0 0.0 0.00 0.03 0.03 88 1009.5
20260509022222 12 270 0.0 0.0 0.00 0.03 0.03 88 1009.5
20260509021224 11 270 0.0 0.0 0.00 0.03 0.03 85 1009.5
20260509020321 12 270 0.0 0.0 0.00 0.03 0.03 86 1009.5
20260509015322 12 270 0.0 0.0 0.00 0.03 0.03 84 1009.5
20260509014323 12 270 0.0 0.0 0.00 0.03 0.03 83 1009.5
20260509013323 12 270 0.0 0.0 0.00 0.03 0.03 80 1009.5
20260509012421 12 270 0.0 0.0 0.00 0.03 0.03 79 1009.5
20260509010421 13 270 0.0 0.0 0.00 0.03 0.03 77 1009.5
20260509005420 13 270 0.0 0.0 0.00 0.03 0.03 73 1009.2
20260509004421 14 270 0.0 0.0 0.00 0.10 0.03 71 1009.2
20260509002421 15 270 0.0 0.0 0.00 0.23 0.03 70 1008.9
20260509001423 16 270 0.0 0.0 0.00 0.30 0.03 69 1008.9
20260509000422 16 270 0.0 0.0 0.00 0.30 0.03 69 1009.2
20260508235322 16 270 0.0 0.0 0.00 0.30 0.03 69 1009.2
20260508234420 16 337 0.0 0.0 0.00 0.30 0.03 69 1009.2
20260508233422 16 315 0.0 0.0 0.00 0.30 0.03 68 1009.2
20260508232422 16 180 0.0 3.2 0.00 0.30 0.03 67 1009.4
20260508231521 16 180 0.0 0.0 0.00 0.30 0.03 66 1009.2
20260508230521 17 180 3.2 6.4 0.00 0.30 0.03 63 1009.5
20260508225620 18 270 0.0 0.0 0.00 0.30 0.03 62 1009.2
20260508223720 18 316 1.6 4.8 0.00 0.30 0.03 62 1009.2
20260508222722 17 22 0.0 0.0 0.00 0.30 0.03 63 1009.5
20260508222622 17 22 0.0 0.0 0.00 0.30 0.03 63 1009.2
20260508221719 17 281 0.0 4.8 0.00 0.30 0.03 61 1009.5
20260508214822 18 221 3.2 4.8 0.00 0.30 0.03 64 1009.2
20260508213822 17 247 0.0 3.2 0.00 0.30 0.03 66 1009.5
20260508212722 17 247 0.0 3.2 0.00 0.30 0.03 65 1009.5
20260508210721 17 202 1.6 6.4 0.00 0.30 0.03 63 1009.5
20260508205722 18 263 0.0 3.2 0.00 0.30 0.03 60 1009.5
20260508204723 18 241 1.6 6.4 0.00 0.30 0.03 58 1009.9
20260508203819 18 290 0.0 4.8 0.00 0.30 0.03 59 1009.9
20260508202823 18 233 0.0 4.8 0.00 0.30 0.03 58 1009.9
20260508200821 18 208 1.6 4.8 0.00 0.30 0.03 56 1010.2
20260508195820 18 194 3.2 8.0 0.00 0.30 0.03 58 1010.2
20260508193822 17 241 1.6 6.4 0.00 0.30 0.03 60 1010.6
20260508192824 17 227 3.2 11.3 0.00 0.30 0.03 61 1010.6
20260508191821 17 229 3.2 6.4 0.00 0.30 0.03 63 1010.9
20260508190821 17 197 3.2 4.8 0.00 0.30 0.03 64 1010.9
20260508185920 17 169 0.0 3.2 0.00 0.30 0.03 64 1011.3
20260508184921 17 233 1.6 6.4 0.00 0.30 0.03 64 1011.3
20260508183922 17 241 3.2 8.0 0.00 0.30 0.03 64 1011.6
20260508182920 18 180 3.2 6.4 0.00 0.30 0.03 64 1011.6
20260508181921 18 239 1.6 4.8 0.00 0.30 0.03 62 1011.6
20260508181020 18 204 1.6 6.4 0.00 0.30 0.03 60 1011.6
20260508180020 18 205 3.2 6.4 0.00 0.30 0.03 60 1012.0
20260508175021 18 188 3.2 8.0 0.00 0.30 0.03 59 1011.9
20260508174022 18 90 0.0 1.6 0.00 0.30 0.03 58 1012.0
20260508173121 18 199 3.2 6.4 0.00 0.30 0.03 57 1012.0
20260508172124 19 258 1.6 6.4 0.00 0.30 0.03 56 1012.3
20260508171121 19 226 3.2 6.4 0.00 0.30 0.03 55 1012.3
20260508170121 18 180 0.0 0.0 0.00 0.30 0.03 54 1012.6
20260508165122 18 157 1.6 3.2 0.00 0.30 0.03 56 1012.7
20260508164121 17 225 3.2 8.0 0.00 0.30 0.03 60 1012.7
20260508163123 17 225 1.6 4.8 0.00 0.30 0.03 64 1013.0
20260508162122 17 196 4.8 9.7 0.00 0.30 0.03 70 1013.0
20260508161123 16 160 1.6 8.0 0.00 0.30 0.03 77 1013.4
20260508160220 16 172 1.6 4.8 0.00 0.30 0.03 84 1013.4
20260508160121 16 244 1.6 4.8 0.00 0.30 0.03 84 1013.4
20260508155122 15 148 1.6 6.4 0.00 0.30 0.03 88 1013.4
20260508154122 14 174 1.6 3.2 0.00 0.30 0.03 92 1013.4
20260508152120 13 187 3.2 8.0 0.00 0.30 0.03 96 1013.4
20260508151123 13 343 0.0 3.2 0.00 0.30 0.03 97 1013.4
20260508150219 13 287 0.0 4.8 0.00 0.30 0.03 98 1013.4
20260508144221 12 65 0.0 0.0 0.00 0.30 0.03 98 1013.4
20260508142221 11 270 0.0 1.6 0.00 0.30 0.03 99 1013.7
20260508141320 11 308 0.0 4.8 0.00 0.30 0.03 99 1013.7
20260508140322 10 183 3.2 8.0 0.00 0.30 0.03 100 1014.0
20260508134420 10 202 0.0 3.2 0.00 0.30 0.03 100 1014.0
20260508134321 10 214 1.6 6.4 0.00 0.30 0.03 100 1014.0
20260508133420 9 315 0.0 0.0 0.00 0.30 0.03 100 1014.0
20260508132420 9 315 0.0 1.6 0.00 0.30 0.03 100 1014.0
20260508131519 8 315 0.0 0.0 0.00 0.30 0.03 100 1014.0
20260508131420 8 315 0.0 0.0 0.00 0.30 0.03 100 1014.0
20260508130421 8 315 0.0 0.0 0.00 0.30 0.03 100 1014.0
20260508125421 8 315 0.0 0.0 0.00 0.30 0.03 100 1014.0
20260508123520 8 202 0.0 0.0 0.00 0.30 0.03 100 1013.7
20260508123419 7 202 0.0 1.6 0.00 0.30 0.03 100 1013.7
20260508122421 7 202 0.0 0.0 0.00 0.30 0.03 100 1013.7
20260508121421 7 202 0.0 1.6 0.00 0.30 0.03 100 1013.7
20260508120421 7 202 0.0 0.0 0.00 0.30 0.03 100 1013.7
20260508115422 6 202 0.0 0.0 0.00 0.30 0.03 100 1013.6
20260508114421 6 202 0.0 0.0 0.00 0.30 0.03 100 1013.6
20260508113422 6 202 0.0 0.0 0.00 0.30 0.03 100 1013.4
20260508112519 6 202 0.0 0.0 0.00 0.30 0.03 100 1013.4
20260508110521 5 202 0.0 0.0 0.00 0.30 0.03 100 1013.0
20260508105521 5 202 0.0 0.0 0.00 0.30 0.03 100 1013.0
20260508104521 5 202 0.0 0.0 0.00 0.30 0.03 100 1013.0
20260508103521 5 22 0.0 0.0 0.00 0.30 0.03 100 1013.0
20260508102520 5 22 0.0 0.0 0.00 0.30 0.03 100 1013.0
20260508101522 5 22 0.0 0.0 0.00 0.30 0.03 100 1013.3
20260508100521 5 22 0.0 0.0 0.00 0.30 0.03 100 1012.9
20260508094521 5 22 0.0 0.0 0.03 0.30 0.03 100 1013.0
20260508093521 4 360 0.0 0.0 0.03 0.30 0.03 100 1013.0
20260508092523 4 360 0.0 0.0 0.03 0.30 0.03 100 1013.0
20260508091523 4 360 0.0 0.0 0.03 0.30 0.03 100 1013.0
20260508090523 4 360 0.0 0.0 0.03 0.30 0.03 100 1013.0
20260508085521 4 360 0.0 0.0 0.03 0.30 0.03 99 1013.0
20260508084619 4 360 0.0 0.0 0.00 0.28 0.00 99 1013.0
20260508084521 4 360 0.0 0.0 0.00 0.28 0.00 99 1013.0
20260508083522 4 360 0.0 0.0 0.00 0.28 0.00 99 1013.0
20260508080521 4 360 0.0 0.0 0.00 0.28 0.00 99 1013.0
20260508075522 4 360 0.0 0.0 0.00 0.28 0.00 99 1013.0
20260508074521 5 360 0.0 0.0 0.00 0.28 0.00 99 1013.0
20260508072622 5 360 0.0 0.0 0.00 0.28 0.00 99 1013.0
20260508071621 5 360 0.0 0.0 0.00 0.28 0.00 99 1013.0
20260508070621 5 360 1.6 3.2 0.00 0.28 0.00 99 1013.1
20260508065720 5 360 0.0 0.0 0.00 0.28 0.00 99 1013.3
20260508063820 6 270 0.0 0.0 0.00 0.28 0.00 99 1013.4
20260508062821 5 270 0.0 0.0 0.00 0.28 0.00 99 1013.4
20260508061821 5 270 0.0 0.0 0.00 0.28 0.00 98 1013.4
20260508060822 5 270 0.0 0.0 0.00 0.28 0.00 98 1013.4
20260508060720 5 270 0.0 0.0 0.00 0.28 0.00 98 1013.4
20260508055720 5 270 0.0 0.0 0.00 0.28 0.00 97 1013.4
20260508054819 5 270 0.0 0.0 0.00 0.28 0.00 98 1013.4